ANS854 SASA-SASJ

Flight info

Callsign ANS854
Flight time 0h 9m
Altitude 11000
Route JUJ
Aircraft MD82/M-SDFGIJ1RWY/S

Departure

Time 2026-05-04 19:18
Airport Martín Miguel de Güemes International Airport (SASA)

Arrival

Time 2026-05-04 19:28
Airport Gobernador Horacio Guzman International Airport (SASJ)
Time Latitude Longitude Altitude Speed Heading
2026-05-04 18:46 -24.84507 -65.47829 4018 ft 0 kts 22°
2026-05-04 19:07 -24.84508 -65.47830 4018 ft 2 kts 22°
2026-05-04 19:07 -24.84525 -65.47841 4027 ft 4 kts 59°
2026-05-04 19:08 -24.84527 -65.47859 4006 ft 3 kts 114°
2026-05-04 19:08 -24.84531 -65.47847 4018 ft 4 kts 107°
2026-05-04 19:08 -24.84538 -65.47819 4018 ft 4 kts 109°
2026-05-04 19:08 -24.84552 -65.47796 4018 ft 4 kts 136°
2026-05-04 19:09 -24.84570 -65.47785 4018 ft 0 kts 156°
2026-05-04 19:10 -24.84571 -65.47784 4018 ft 0 kts 156°
2026-05-04 19:11 -24.84584 -65.47778 4018 ft 6 kts 156°
2026-05-04 19:11 -24.84650 -65.47746 4018 ft 14 kts 156°
2026-05-04 19:11 -24.84754 -65.47697 4018 ft 16 kts 156°
2026-05-04 19:11 -24.84860 -65.47659 4018 ft 15 kts 185°
2026-05-04 19:12 -24.84935 -65.47724 4019 ft 14 kts 232°
2026-05-04 19:12 -24.85047 -65.47882 4020 ft 13 kts 232°
2026-05-04 19:12 -24.85104 -65.47962 4020 ft 13 kts 232°
2026-05-04 19:13 -24.85160 -65.48040 4020 ft 13 kts 232°
2026-05-04 19:13 -24.85215 -65.48118 4020 ft 13 kts 232°
2026-05-04 19:13 -24.85275 -65.48202 4019 ft 14 kts 232°
2026-05-04 19:13 -24.85337 -65.48288 4019 ft 14 kts 232°
2026-05-04 19:14 -24.85398 -65.48374 4019 ft 14 kts 232°
2026-05-04 19:14 -24.85453 -65.48451 4017 ft 6 kts 232°
2026-05-04 19:14 -24.85479 -65.48488 4018 ft 8 kts 232°
2026-05-04 19:14 -24.85533 -65.48563 4019 ft 16 kts 232°
2026-05-04 19:15 -24.85648 -65.48637 4019 ft 23 kts 193°
2026-05-04 19:15 -24.85829 -65.48676 4019 ft 29 kts 191°
2026-05-04 19:15 -24.86044 -65.48721 4020 ft 34 kts 191°
2026-05-04 19:15 -24.86294 -65.48772 4017 ft 39 kts 190°
2026-05-04 19:16 -24.86572 -65.48830 4016 ft 42 kts 191°
2026-05-04 19:16 -24.86850 -65.48890 4004 ft 37 kts 187°
2026-05-04 19:16 -24.87091 -65.48828 4018 ft 35 kts 161°
2026-05-04 19:16 -24.87297 -65.48835 4018 ft 28 kts 239°
2026-05-04 19:17 -24.87216 -65.48970 4020 ft 22 kts 355°
2026-05-04 19:17 -24.86976 -65.48919 4017 ft 59 kts 11°
2026-05-04 19:17 -24.86368 -65.48789 4017 ft 117 kts 11°
2026-05-04 19:17 -24.85401 -65.48581 4024 ft 164 kts 14°
2026-05-04 19:18 -24.84222 -65.48331 4485 ft 172 kts 11°
2026-05-04 19:18 -24.83058 -65.48071 5191 ft 171 kts 13°
2026-05-04 19:18 -24.81867 -65.47816 5707 ft 180 kts 13°
2026-05-04 19:18 -24.80548 -65.47523 5805 ft 211 kts 12°
2026-05-04 19:19 -24.79037 -65.47189 5994 ft 232 kts 12°
2026-05-04 19:19 -24.77419 -65.46813 6449 ft 244 kts 12°
2026-05-04 19:19 -24.75767 -65.46262 7006 ft 250 kts 27°
2026-05-04 19:19 -24.74331 -65.45146 7426 ft 262 kts 45°
2026-05-04 19:20 -24.73141 -65.43544 7694 ft 279 kts 54°
2026-05-04 19:20 -24.72030 -65.41769 8260 ft 283 kts 56°
2026-05-04 19:20 -24.70948 -65.39961 8887 ft 285 kts 57°
2026-05-04 19:20 -24.69869 -65.38106 9476 ft 289 kts 58°
2026-05-04 19:21 -24.68793 -65.36220 9956 ft 292 kts 58°
2026-05-04 19:21 -24.67714 -65.34325 10430 ft 294 kts 58°
2026-05-04 19:21 -24.66593 -65.32391 10702 ft 306 kts 54°
2026-05-04 19:21 -24.65084 -65.30685 10851 ft 320 kts 38°
2026-05-04 19:22 -24.63441 -65.29004 10859 ft 321 kts 53°
2026-05-04 19:22 -24.62278 -65.26932 10318 ft 320 kts 60°
2026-05-04 19:22 -24.61198 -65.24775 9609 ft 324 kts 60°
2026-05-04 19:22 -24.60119 -65.22609 8829 ft 319 kts 60°
2026-05-04 19:23 -24.59071 -65.20492 8067 ft 311 kts 61°
2026-05-04 19:23 -24.58051 -65.18422 7332 ft 304 kts 61°
2026-05-04 19:23 -24.57062 -65.16405 6713 ft 295 kts 61°
2026-05-04 19:23 -24.56097 -65.14447 6125 ft 288 kts 61°
2026-05-04 19:24 -24.55164 -65.12565 5696 ft 274 kts 60°
2026-05-04 19:24 -24.54266 -65.10765 5287 ft 263 kts 57°
2026-05-04 19:24 -24.53018 -65.09389 5024 ft 249 kts 36°
2026-05-04 19:24 -24.51614 -65.08330 4737 ft 238 kts 34°
2026-05-04 19:25 -24.50300 -65.07354 4494 ft 217 kts 34°
2026-05-04 19:25 -24.49108 -65.06467 4331 ft 197 kts 34°
2026-05-04 19:25 -24.48032 -65.05677 4163 ft 176 kts 33°
2026-05-04 19:25 -24.46960 -65.05335 3996 ft 154 kts 351°
2026-05-04 19:26 -24.45961 -65.05616 3887 ft 151 kts 340°
2026-05-04 19:26 -24.45053 -65.06183 3799 ft 153 kts 333°
2026-05-04 19:26 -24.44107 -65.06752 3670 ft 152 kts 335°
2026-05-04 19:26 -24.43193 -65.07329 3586 ft 153 kts 333°
2026-05-04 19:27 -24.42273 -65.07906 3450 ft 155 kts 336°
2026-05-04 19:27 -24.41328 -65.08497 3242 ft 157 kts 336°
2026-05-04 19:27 -24.40379 -65.09084 3031 ft 156 kts 335°
2026-05-04 19:27 -24.39497 -65.09634 2999 ft 135 kts 329°
2026-05-04 19:28 -24.39054 -65.09916 3001 ft 12 kts 330°
2026-05-04 19:28 -24.39016 -65.09935 3001 ft 0 kts 297°
2026-05-04 19:28 -24.39016 -65.09937 3001 ft 0 kts 276°
2026-05-04 19:28 -24.39018 -65.09939 3001 ft 0 kts 248°
2026-05-04 19:29 -24.39032 -65.09939 3001 ft 6 kts 168°
2026-05-04 19:29 -24.39064 -65.09895 3001 ft 11 kts 92°
2026-05-04 19:29 -24.38989 -65.09842 2999 ft 15 kts
2026-05-04 19:29 -24.38907 -65.09786 2998 ft 15 kts 57°
2026-05-04 19:30 -24.38857 -65.09690 2998 ft 14 kts 60°
2026-05-04 19:30 -24.38807 -65.09596 2998 ft 14 kts 59°
2026-05-04 19:30 -24.38757 -65.09505 2998 ft 13 kts 53°
2026-05-04 19:30 -24.38713 -65.09481 2998 ft 8 kts
2026-05-04 19:31 -24.38681 -65.09477 2998 ft 4 kts 24°
2026-05-04 19:31 -24.38668 -65.09465 2998 ft 3 kts 51°
2026-05-04 19:31 -24.38657 -65.09447 2998 ft 2 kts 60°
2026-05-04 19:31 -24.38656 -65.09445 2998 ft 0 kts 60°